DW9029 Weather Reports


Display with metric or nautical units.
time (UTC)temp
F
wind
direction
speed
MPH
gust
MPH
rain 1hr
in
rain 24hr
in
rain mn
in
humidity
%
barometer
mb
20260831033904 72 355 0.0 0.0 0.00 0.00 0.00 72 1014.7
20260831033404 72 355 0.0 0.0 0.00 0.00 0.00 73 1014.7
20260831031904 71 355 0.0 0.0 0.00 0.00 0.00 74 1014.8
20260831031405 71 355 0.0 0.0 0.00 0.00 0.00 74 1014.8
20260831030904 71 355 0.0 0.0 0.00 0.00 0.00 75 1014.8
20260831024904 70 125 0.0 0.0 0.00 0.00 0.00 77 1015.0
20260831024404 70 125 0.0 0.0 0.00 0.00 0.00 77 1015.0
20260831023904 71 125 0.0 0.0 0.00 0.00 0.00 77 1015.1
20260831023404 71 125 0.0 0.0 0.00 0.00 0.00 76 1015.0
20260831021905 71 125 0.0 0.0 0.00 0.00 0.00 76 1015.0
20260831021404 71 125 0.0 0.0 0.00 0.00 0.00 76 1014.9
20260831020404 71 125 0.0 0.0 0.00 0.00 0.00 75 1014.8
20260831014904 71 125 0.0 0.0 0.00 0.00 0.00 75 1014.8
20260831014404 71 125 0.0 0.0 0.00 0.00 0.00 75 1014.8
20260831013904 71 125 0.0 0.0 0.00 0.00 0.00 75 1014.8
20260831013405 71 125 0.0 0.0 0.00 0.00 0.00 75 1014.8
20260831011904 71 125 0.0 0.0 0.00 0.00 0.00 74 1014.8
20260831011404 71 125 0.0 0.0 0.00 0.00 0.00 74 1014.8
20260831010905 71 125 0.0 0.0 0.00 0.00 0.00 74 1014.8
20260831010404 71 125 0.0 0.0 0.00 0.00 0.00 74 1014.8
20260831004904 71 125 0.0 0.0 0.00 0.00 0.00 73 1014.7
20260831004404 71 125 0.0 0.0 0.00 0.00 0.00 73 1014.8
20260831003904 71 125 0.0 0.0 0.00 0.00 0.00 72 1014.8
20260831003404 71 125 0.0 0.0 0.00 0.00 0.00 72 1014.7
20260831001405 72 124 0.0 0.0 0.00 0.00 0.00 71 1014.7
20260831000905 72 124 0.0 0.0 0.00 0.00 0.00 71 1014.6
20260831000405 72 124 0.0 0.0 0.00 0.00 0.00 71 1014.6
20260830234904 72 124 0.0 0.0 0.00 0.00 0.00 70 1014.5
20260830234405 72 125 0.0 0.0 0.00 0.00 0.00 70 1014.5
20260830233904 72 131 1.0 3.0 0.00 0.00 0.00 70 1014.5
20260830233404 72 125 0.0 0.0 0.00 0.00 0.00 69 1014.5
20260830231905 73 169 0.0 0.0 0.00 0.00 0.00 65 1014.2
20260830231404 74 170 0.0 0.0 0.00 0.00 0.00 64 1014.2
20260830230904 75 170 0.0 0.0 0.00 0.00 0.00 63 1014.2
20260830230404 75 170 0.0 0.0 0.00 0.00 0.00 62 1014.1
20260830224904 76 170 0.0 0.0 0.00 0.00 0.00 58 1014.0
20260830221905 78 171 0.0 0.0 0.00 0.00 0.00 54 1013.8
20260830221404 78 171 0.0 0.0 0.00 0.00 0.00 53 1013.8
20260830220904 79 171 0.0 0.0 0.00 0.00 0.00 52 1013.8
20260830214904 79 170 0.0 0.0 0.00 0.00 0.00 52 1013.8
20260830213904 80 163 0.0 0.0 0.00 0.00 0.00 51 1013.7
20260830213404 81 120 0.0 5.0 0.00 0.00 0.00 50 1013.6
20260830211904 81 240 1.0 8.0 0.00 0.00 0.00 49 1013.5
20260830211404 81 253 2.0 8.0 0.00 0.00 0.00 49 1013.4
20260830204404 82 246 3.0 8.0 0.00 0.00 0.00 47 1013.4
20260830203905 83 243 3.0 8.0 0.00 0.00 0.00 47 1013.4
20260830201904 84 230 0.0 5.0 0.00 0.00 0.00 47 1013.5
20260830201404 84 228 2.0 7.0 0.00 0.00 0.00 46 1013.4
20260830200404 84 232 1.0 7.0 0.00 0.00 0.00 46 1013.3
20260830194904 85 232 1.0 7.0 0.00 0.00 0.00 45 1013.1
20260830194405 85 242 0.0 10.0 0.00 0.00 0.00 45 1013.0
20260830193904 86 241 1.0 7.0 0.00 0.00 0.00 44 1012.9
20260830193404 86 226 1.0 9.0 0.00 0.00 0.00 43 1012.8
20260830191404 88 218 2.0 7.0 0.00 0.00 0.00 40 1012.7
20260830190904 88 219 0.0 6.0 0.00 0.00 0.00 39 1012.6
20260830190404 88 221 2.0 9.0 0.00 0.00 0.00 39 1012.5
20260830183904 90 208 3.0 7.0 0.00 0.00 0.00 36 1012.5
20260830181904 92 193 6.0 10.0 0.00 0.00 0.00 34 1012.5
20260830181404 92 214 6.0 9.0 0.00 0.00 0.00 33 1012.5
20260830180904 92 201 5.0 8.0 0.00 0.00 0.00 32 1012.5
20260830180404 92 203 4.0 13.0 0.00 0.00 0.00 32 1012.5
20260830174904 93 218 5.0 9.0 0.00 0.00 0.00 33 1012.6
20260830174404 93 231 3.0 10.0 0.00 0.00 0.00 33 1012.6
20260830173905 93 184 3.0 8.0 0.00 0.00 0.00 34 1012.5
20260830171905 93 202 1.0 7.0 0.00 0.00 0.00 35 1012.6
20260830171404 93 183 3.0 8.0 0.00 0.00 0.00 35 1012.6
20260830170904 93 204 5.0 12.0 0.00 0.00 0.00 34 1012.6
20260830164904 93 187 4.0 8.0 0.00 0.00 0.00 32 1012.7
20260830164404 93 180 3.0 9.0 0.00 0.00 0.00 31 1012.7
20260830163904 94 190 3.0 10.0 0.00 0.00 0.00 30 1012.7
20260830163404 94 194 2.0 9.0 0.00 0.00 0.00 30 1012.7
20260830161904 94 173 5.0 10.0 0.00 0.00 0.00 29 1012.8
20260830161404 94 211 4.0 10.0 0.00 0.00 0.00 29 1012.9
20260830160904 93 197 5.0 13.0 0.00 0.00 0.00 30 1013.0
20260830160404 93 197 6.0 12.0 0.00 0.00 0.00 30 1013.0
20260830154904 95 191 5.0 9.0 0.00 0.00 0.00 29 1012.9
20260830154404 94 187 2.0 5.0 0.00 0.00 0.00 30 1012.9
20260830153904 94 230 1.0 5.0 0.00 0.00 0.00 31 1012.9
20260830153405 94 210 0.0 9.0 0.00 0.00 0.00 30 1012.9
20260830151904 95 132 2.0 7.0 0.00 0.00 0.00 30 1013.1
20260830150904 94 233 5.0 7.0 0.00 0.00 0.00 31 1013.2
20260830150404 94 245 1.0 7.0 0.00 0.00 0.00 32 1013.2
20260830144904 94 212 2.0 7.0 0.00 0.00 0.00 31 1013.4
20260830144404 94 211 1.0 5.0 0.00 0.00 0.00 32 1013.4
20260830143904 93 207 3.0 8.0 0.00 0.00 0.00 32 1013.5
20260830143404 93 147 2.0 10.0 0.00 0.00 0.00 32 1013.6
20260830141904 93 98 3.0 8.0 0.00 0.00 0.00 32 1013.7
20260830141404 93 103 2.0 7.0 0.00 0.00 0.00 32 1013.8
20260830140904 92 204 4.0 7.0 0.00 0.00 0.00 32 1013.9
20260830140404 92 133 1.0 8.0 0.00 0.00 0.00 33 1014.0
20260830134904 92 150 2.0 7.0 0.00 0.00 0.00 35 1014.1
20260830134404 92 242 2.0 8.0 0.00 0.00 0.00 36 1014.3
20260830133904 92 154 1.0 6.0 0.00 0.00 0.00 37 1014.3
20260830133404 92 126 1.0 9.0 0.00 0.00 0.00 37 1014.4
20260830131904 91 181 0.0 6.0 0.00 0.00 0.00 36 1014.5
20260830131404 91 177 1.0 6.0 0.00 0.00 0.00 36 1014.6
20260830130904 91 98 1.0 7.0 0.00 0.00 0.00 37 1014.6
20260830130404 91 100 3.0 9.0 0.00 0.00 0.00 37 1014.7
20260830124404 91 149 1.0 5.0 0.00 0.00 0.00 35 1015.0
20260830123904 91 161 0.0 3.0 0.00 0.00 0.00 35 1015.1
20260830123404 91 268 0.0 3.0 0.00 0.00 0.00 34 1015.0
20260830121904 90 121 1.0 3.0 0.00 0.00 0.00 35 1015.1
20260830121404 89 132 0.0 3.0 0.00 0.00 0.00 36 1015.1
20260830120905 89 218 0.0 0.0 0.00 0.00 0.00 35 1015.2
20260830120404 89 230 0.0 3.0 0.00 0.00 0.00 36 1015.3
20260830114905 88 230 0.0 1.0 0.00 0.00 0.00 37 1015.6
20260830114404 88 73 0.0 3.0 0.00 0.00 0.00 37 1015.6
20260830113904 87 43 0.0 0.0 0.00 0.00 0.00 37 1015.7
20260830113404 87 264 0.0 3.0 0.00 0.00 0.00 37 1015.8
20260830111904 87 274 0.0 0.0 0.00 0.00 0.00 38 1015.9
20260830111404 86 231 0.0 0.0 0.00 0.00 0.00 38 1015.9
20260830110904 86 209 0.0 0.0 0.00 0.00 0.00 39 1015.9
20260830110405 85 131 0.0 0.0 0.00 0.00 0.00 40 1015.9
20260830104904 84 263 0.0 0.0 0.00 0.00 0.00 41 1016.1
20260830104404 84 236 0.0 0.0 0.00 0.00 0.00 41 1016.1
20260830103904 85 253 0.0 0.0 0.00 0.00 0.00 41 1016.1
20260830103404 84 77 0.0 0.0 0.00 0.00 0.00 41 1016.1
20260830101904 83 76 0.0 0.0 0.00 0.00 0.00 42 1016.2
20260830101404 83 82 0.0 0.0 0.00 0.00 0.00 45 1016.2
20260830100904 83 91 0.0 0.0 0.00 0.00 0.00 46 1016.2
20260830100404 82 90 0.0 0.0 0.00 0.00 0.00 47 1016.2
20260830094904 80 13 0.0 0.0 0.00 0.00 0.00 50 1016.2
20260830093904 79 38 0.0 0.0 0.00 0.00 0.00 51 1016.3
20260830093404 79 38 0.0 1.0 0.00 0.00 0.00 52 1016.4
20260830091904 78 10 0.0 0.0 0.00 0.00 0.00 54 1016.3
20260830091404 77 12 0.0 1.0 0.00 0.00 0.00 54 1016.3
20260830090904 77 34 0.0 2.0 0.00 0.00 0.00 54 1016.4
20260830090404 77 37 0.0 1.0 0.00 0.00 0.00 55 1016.3
20260830084404 75 3 0.0 0.0 0.00 0.00 0.00 58 1016.2
20260830083904 75 38 0.0 0.0 0.00 0.00 0.00 59 1016.2
20260830083404 74 29 0.0 0.0 0.00 0.00 0.00 59 1016.2
20260830081905 74 34 0.0 0.0 0.00 0.00 0.00 58 1016.2
20260830081404 74 32 0.0 0.0 0.00 0.00 0.00 58 1016.2
20260830080904 73 28 0.0 0.0 0.00 0.00 0.00 58 1016.2
20260830074904 72 19 0.0 0.0 0.00 0.00 0.00 58 1016.2
20260830074404 71 18 0.0 0.0 0.00 0.00 0.00 59 1016.2
20260830073904 71 19 0.0 0.0 0.00 0.00 0.00 60 1016.2
20260830073404 70 17 0.0 1.0 0.00 0.00 0.00 60 1016.2
20260830071904 69 354 1.0 3.0 0.00 0.00 0.00 62 1015.9
20260830071405 69 23 0.0 1.0 0.00 0.00 0.00 63 1015.9
20260830070904 69 315 0.0 0.0 0.00 0.00 0.00 64 1015.8
20260830070404 68 352 0.0 0.0 0.00 0.00 0.00 65 1015.8
20260830064405 67 342 0.0 0.0 0.00 0.00 0.00 68 1015.6
20260830063904 67 5 0.0 0.0 0.00 0.00 0.00 69 1015.6
20260830063404 67 328 0.0 0.0 0.00 0.00 0.00 69 1015.6
20260830061904 67 323 0.0 0.0 0.00 0.00 0.00 70 1015.5
20260830061404 67 323 0.0 1.0 0.00 0.00 0.00 70 1015.5
20260830060904 67 322 0.0 0.0 0.00 0.00 0.00 70 1015.5
20260830060404 67 321 0.0 0.0 0.00 0.00 0.00 70 1015.5
20260830054904 67 321 0.0 0.0 0.00 0.00 0.00 70 1015.4
20260830054404 67 321 0.0 0.0 0.00 0.00 0.00 69 1015.3
20260830053904 68 321 0.0 0.0 0.00 0.00 0.00 69 1015.3
20260830053404 68 321 0.0 0.0 0.00 0.00 0.00 69 1015.3
20260830051904 68 318 0.0 0.0 0.00 0.00 0.00 69 1015.2
20260830050904 68 304 0.0 2.0 0.00 0.00 0.00 69 1015.2
20260830050404 68 275 0.0 0.0 0.00 0.00 0.00 69 1015.2
20260830044404 68 275 0.0 0.0 0.00 0.00 0.00 69 1015.1
20260830043904 68 275 0.0 0.0 0.00 0.00 0.00 69 1015.1
20260830043405 68 275 0.0 0.0 0.00 0.00 0.00 69 1015.0
20260830041904 68 275 0.0 0.0 0.00 0.00 0.00 69 1014.9
20260830040904 68 275 0.0 0.0 0.00 0.00 0.00 69 1014.9
20260830040404 68 275 0.0 0.0 0.00 0.00 0.00 69 1014.9